Regional Weather Roundup
Issued by NWS

Home | Current Version | Previous Version | Text Only | Print | Product List | Glossary Off
Versions: 1 2 3 4 5 6 7 8 9 10 11 12 13 14 15 16 17 18 19 20 21 22 23 24 25 26 27 28 29 30 31 32 33 34 35 36 37 38 39 40 41 42 43 44 45 46 47 48 49 50

000
ASUS43 KMKX 312311
RWRWI

WISCONSIN REGIONAL WEATHER ROUNDUP
NATIONAL WEATHER SERVICE MILWAUKEE/SULLIVAN WI
600 PM CDT THU JUL 31 2014

NOTE: "FAIR" INDICATES FEW OR NO CLOUDS BELOW 12,000 FEET WITH NO
SIGNIFICANT WEATHER AND/OR OBSTRUCTIONS TO VISIBILITY.

WIZ001-002-006>008-014>016-023>028-010000-
NORTHWEST WISCONSIN

CITY           SKY/WX    TMP DP  RH WIND       PRES   REMARKS
SUPERIOR ARPT  SUNNY     79  58  48 NW8       29.95S HX  80
ASHLAND        SUNNY     77  56  48 W7        29.96F
HAYWARD        SUNNY     79  56  45 VRB5      29.98S HX  80
SIREN          MOSUNNY   80  58  46 NW10      29.98S HX  80
RICE LAKE      PTSUNNY   73  62  69 SW3       30.01S
LADYSMITH      MOSUNNY   75  60  60 W8        30.01R
EAU CLAIRE     MOSUNNY   78  57  48 W8        29.98S
MENOMONIE      PTCLDY    81  54  39 SW9       30.00S HX  80
NEW RICHMOND   SUNNY     79  54  41 W8        30.00S
OSCEOLA        MOSUNNY   79  59  49 W8        30.01S HX  80
$$

WIZ003>005-009-010-017-018-010000-
NORTH CENTRAL WISCONSIN

CITY           SKY/WX    TMP DP  RH WIND       PRES   REMARKS
WOODRUFF       SUNNY     77  49  37 NW7       29.99F
RHINELANDER    SUNNY     74  50  42 NW3       30.00S
EAGLE RIVER    SUNNY     73  45  35 N7        29.99S
LAND O LAKES   SUNNY     74  46  36 W8        30.00S
PHILLIPS       MOSUNNY   75  55  50 W3        29.98F
TOMAHAWK       MOSUNNY   74  52  46 NW8       29.99S
MEDFORD        PTSUNNY   72  62  70 W6        30.00S
MERRILL        MOSUNNY   75  62  62 W6        29.98S
$$

WIZ029-030-035-036-043>047-010000-
CENTRAL WISCONSIN

CITY           SKY/WX    TMP DP  RH WIND       PRES   REMARKS
WAUSAU         PTSUNNY   75  60  59 W8        29.97S
MOSINEE        MOSUNNY   73  59  60 W12G21    30.01R
MARSHFIELD     MOSUNNY   78  60  53 W10       29.99F
STEVENS POINT  HVY RAIN  66  59  80 SW14G30   30.03R
WAUPACA        PTSUNNY   82  55  40 NW7       29.98R HX  81
WAUTOMA        MOSUNNY   82  57  42 W9        29.98S HX  82
WISC RAPIDS    MOSUNNY   79  58  48 W10G20    29.99F HX  80
CAMP DOUGLAS   MOSUNNY   77  63  61 W7        30.00S
$$

WIZ011>013-019>022-031-037>040-048>050-010000-
NORTHEAST WISCONSIN

CITY           SKY/WX    TMP DP  RH WIND       PRES   REMARKS
ANTIGO         MOSUNNY   74  53  47 NW5       29.99R
STURGEON BAY   SUNNY     77  52  41 S7        29.96S
GREEN BAY      MOSUNNY   76  63  64 SW6       29.96S
MANITOWOC      PTSUNNY   66  63  90 CALM      29.97F FOG
APPLETON       LGT RAIN  72  63  73 NW8       29.99R
CLINTONVILLE   PTSUNNY   72  55  56 W9        29.98R
OSHKOSH        PTSUNNY   72  65  78 SE3       29.97F HAZE
$$

WIZ032>034-041-042-053>061-010000-
SOUTHWEST WISCONSIN

CITY           SKY/WX    TMP DP  RH WIND       PRES   REMARKS
LA CROSSE      SUNNY     80  57  45 NW6       29.99F HX  80
SPARTA         SUNNY     78  56  46 W6        30.01F
VIROQUA        FAIR      76  56  50 W5        30.03S
BOSCOBEL       SUNNY     83  57  41 NW7       30.01F HX  82
PRAIRIE DU CHI SUNNY     81  49  31 W8        30.01S HX  80
PLATTEVILLE    FAIR      78  58  48 W9        30.04S
$$

WIZ056-057-062-063-064-067-068-010000-
SOUTH CENTRAL WISCONSIN

CITY           SKY/WX    TMP DP  RH WIND       PRES   REMARKS
BARABOO/DELLS  SUNNY     79  52  39 W8        30.00S
LONE ROCK      MOSUNNY   83  57  41 W8        30.00F HX  82
WATERTOWN      SUNNY     78  58  51 W6        29.99F
MADISON        MOSUNNY   81  57  43 NW8       30.01S HX  81
MIDDLETON      FAIR      80  55  41 W9        30.02R HX  80
MONROE         SUNNY     79  54  41 W12       30.03S
JANESVILLE     MOSUNNY   82  52  34 W13       30.01S HX  81
$$

WIZ051-052-058>065-066-070>072-010000-
SOUTHEAST WISCONSIN

CITY           SKY/WX    TMP DP  RH WIND       PRES   REMARKS
MILWAUKEE      PTSUNNY   81  55  40 W14       29.99S HX  81
WAUKESHA       MOSUNNY   79  54  41 W9        30.01R
MILWAUKEE/TIMM SUNNY     79  52  38 W12G17    30.00R
RACINE         SUNNY     80  57  45 W10       30.01S HX  80
BURLINGTON     SUNNY     77  56  47 W8        30.00F
KENOSHA        SUNNY     79  59  50 W8        30.00S HX  80
FOND DU LAC    MOSUNNY   80  58  46 W12       29.97F HX  80
SHEBOYGAN      PTSUNNY   75  62  64 S7        29.97S
WEST BEND      MOSUNNY   79  54  41 W10       29.99R
JUNEAU         MOSUNNY   78  52  40 W12       30.01S
$$

LSZ147-162-010000-
LAKE SUPERIOR

STATION/POSITION TIME  TEMP    WIND        PRES    WAVE
                       AIR SEA DIR/SP/G            HT/PER
                 (UTC) (F)     (DEG/KT/KT) (MB)    (FT/S)
W MID LAKE BUOY  2250   54 45  190/  6/  6 1014.2S   0
PORT WING        2200   78     260/  6/  9 1014.2
SAXON HARBOR     2200             CALM     1014.6F
$$

LMZ867-665-643>646-010000-
LAKE MICHIGAN

STATION/POSITION TIME  TEMP    WIND        PRES    WAVE
                       AIR SEA DIR/SP/G            HT/PER
                 (UTC) (F)     (DEG/KT/KT) (MB)    (FT/S)
N MID LAKE BUOY  2250   59 55  220/ 14/ 16 1013.3R   2/ 4
NORTHPORT PIER   2200   72     160/  8/ 12 1013.5F
SISTER BAY       2210   77     200/ 10/ 12   N/A
ALGOMA LAKESHORE 2236          210/  7/  8   N/A
KEWAUNEE LAKESHO 2200   57     170/ 10/ 10 1014.1F
SHEBOYGAN LAKESH 2300   70     170/ 14/ 16 1014.7F
PORT WASHINGTON  2200   68      60/  4/  5 1015.6
ATWATER BUOY     2300   78     270/ 12     1016.3R
MILWAUKEE LAKESH 2200   80     280/ 12/ 17   N/A
S MID LAKE BUOY  2250   66 64  170/  8/  8 1015.9F   0
KENOSHA   LAKESH 2300   81     280/  9/ 13 1015.2S
$$

TC  - TEMPERATURE IN CELSIUS
VSB - VISIBILITY IN STATUTE MILES
WCI - WIND CHILL INDEX
HX  - HEAT INDEX




USA.gov is the U.S. government's official web portal to all federal, state and local government web resources and services.